RAM985A LEMG-GMMN

Flight info

Callsign RAM985A
Flight time 0h 54m
Altitude 33000
Route PIMOS N869 GALTO UB11 TUSOR
Aircraft B738/M-SDE3FGHIRWY/LB1

Departure

Time 2026-05-04 18:47
Airport Málaga-Costa del Sol Airport (LEMG)

Arrival

Time 2026-05-04 19:41
Airport Mohammed V International Airport (GMMN)
Time Latitude Longitude Altitude Speed Heading
2026-05-04 18:00 36.67242 -4.49036 48 ft 0 kts 14°
2026-05-04 18:01 36.67250 -4.49034 47 ft 0 kts 14°
2026-05-04 18:29 36.67247 -4.49034 48 ft 2 kts 13°
2026-05-04 18:29 36.67239 -4.49037 48 ft 2 kts 13°
2026-05-04 18:30 36.67210 -4.49046 45 ft 2 kts 13°
2026-05-04 18:30 36.67199 -4.49049 43 ft 2 kts
2026-05-04 18:30 36.67188 -4.49050 43 ft 2 kts 349°
2026-05-04 18:31 36.67177 -4.49046 43 ft 2 kts 329°
2026-05-04 18:31 36.67174 -4.49043 44 ft 2 kts 321°
2026-05-04 18:31 36.67182 -4.49052 43 ft 2 kts 321°
2026-05-04 18:31 36.67189 -4.49059 45 ft 0 kts 313°
2026-05-04 18:35 36.67198 -4.49072 46 ft 4 kts 313°
2026-05-04 18:35 36.67220 -4.49101 47 ft 5 kts 312°
2026-05-04 18:35 36.67241 -4.49130 47 ft 5 kts 311°
2026-05-04 18:36 36.67262 -4.49159 47 ft 4 kts 311°
2026-05-04 18:36 36.67282 -4.49188 47 ft 4 kts 311°
2026-05-04 18:36 36.67297 -4.49220 47 ft 4 kts 283°
2026-05-04 18:36 36.67288 -4.49254 44 ft 4 kts 233°
2026-05-04 18:37 36.67273 -4.49294 47 ft 6 kts 269°
2026-05-04 18:37 36.67299 -4.49344 47 ft 8 kts 310°
2026-05-04 18:37 36.67337 -4.49400 47 ft 9 kts 311°
2026-05-04 18:37 36.67382 -4.49461 47 ft 10 kts 312°
2026-05-04 18:38 36.67425 -4.49523 47 ft 9 kts 310°
2026-05-04 18:38 36.67466 -4.49583 47 ft 9 kts 312°
2026-05-04 18:38 36.67508 -4.49640 44 ft 9 kts 313°
2026-05-04 18:38 36.67556 -4.49705 48 ft 11 kts 313°
2026-05-04 18:39 36.67606 -4.49777 48 ft 11 kts 308°
2026-05-04 18:39 36.67655 -4.49846 48 ft 11 kts 312°
2026-05-04 18:39 36.67714 -4.49890 48 ft 10 kts
2026-05-04 18:39 36.67779 -4.49860 48 ft 10 kts 17°
2026-05-04 18:40 36.67835 -4.49812 48 ft 10 kts 41°
2026-05-04 18:40 36.67885 -4.49757 48 ft 9 kts 43°
2026-05-04 18:40 36.67933 -4.49703 48 ft 9 kts 41°
2026-05-04 18:40 36.67980 -4.49650 48 ft 9 kts 42°
2026-05-04 18:41 36.68033 -4.49590 48 ft 12 kts 41°
2026-05-04 18:41 36.68101 -4.49517 48 ft 14 kts 41°
2026-05-04 18:41 36.68182 -4.49428 48 ft 16 kts 41°
2026-05-04 18:41 36.68262 -4.49338 48 ft 15 kts 49°
2026-05-04 18:42 36.68265 -4.49224 46 ft 14 kts 118°
2026-05-04 18:42 36.68221 -4.49120 46 ft 13 kts 117°
2026-05-04 18:42 36.68179 -4.49019 48 ft 13 kts 118°
2026-05-04 18:42 36.68137 -4.48921 45 ft 13 kts 118°
2026-05-04 18:43 36.68097 -4.48826 48 ft 12 kts 118°
2026-05-04 18:43 36.68058 -4.48734 48 ft 12 kts 117°
2026-05-04 18:43 36.68020 -4.48643 48 ft 12 kts 118°
2026-05-04 18:43 36.67984 -4.48556 47 ft 12 kts 117°
2026-05-04 18:44 36.67980 -4.48547 48 ft 12 kts 117°
2026-05-04 18:44 36.67917 -4.48397 47 ft 14 kts 117°
2026-05-04 18:44 36.67870 -4.48287 47 ft 15 kts 117°
2026-05-04 18:45 36.67824 -4.48177 48 ft 13 kts 117°
2026-05-04 18:45 36.67819 -4.48107 49 ft 12 kts 61°
2026-05-04 18:45 36.67906 -4.48037 50 ft 10 kts 24°
2026-05-04 18:45 36.67963 -4.48065 51 ft 0 kts 300°
2026-05-04 18:46 36.67964 -4.48068 51 ft 3 kts 300°
2026-05-04 18:46 36.68046 -4.48260 47 ft 59 kts 297°
2026-05-04 18:46 36.68345 -4.48968 49 ft 122 kts 297°
2026-05-04 18:47 36.68826 -4.50065 157 ft 161 kts 299°
2026-05-04 18:47 36.69384 -4.51274 890 ft 159 kts 301°
2026-05-04 18:47 36.70116 -4.52287 1628 ft 154 kts 314°
2026-05-04 18:47 36.70864 -4.53260 2269 ft 164 kts 313°
2026-05-04 18:48 36.71689 -4.54405 2640 ft 184 kts 312°
2026-05-04 18:48 36.72572 -4.55625 2995 ft 198 kts 313°
2026-05-04 18:48 36.73620 -4.56852 3252 ft 217 kts 328°
2026-05-04 18:48 36.75103 -4.57318 3669 ft 228 kts 357°
2026-05-04 18:49 36.76697 -4.57019 4193 ft 240 kts 18°
2026-05-04 18:49 36.78151 -4.55775 4460 ft 270 kts 48°
2026-05-04 18:49 36.78886 -4.53576 4974 ft 289 kts 82°
2026-05-04 18:49 36.78519 -4.51122 5668 ft 290 kts 118°
2026-05-04 18:50 36.77178 -4.49292 6491 ft 288 kts 149°
2026-05-04 18:50 36.75396 -4.48272 7348 ft 281 kts 160°
2026-05-04 18:50 36.73631 -4.47257 8214 ft 283 kts 157°
2026-05-04 18:50 36.71837 -4.46140 8811 ft 292 kts 159°
2026-05-04 18:51 36.69905 -4.45489 9514 ft 286 kts 186°
2026-05-04 18:51 36.68010 -4.46007 10302 ft 278 kts 207°
2026-05-04 18:51 36.66261 -4.47182 10557 ft 296 kts 216°
2026-05-04 18:51 36.64485 -4.48644 10735 ft 318 kts 218°
2026-05-04 18:52 36.62596 -4.50254 10982 ft 337 kts 218°
2026-05-04 18:52 36.60638 -4.51917 11557 ft 343 kts 218°
2026-05-04 18:52 36.58652 -4.53586 12251 ft 347 kts 217°
2026-05-04 18:52 36.56639 -4.55264 12948 ft 351 kts 217°
2026-05-04 18:53 36.54594 -4.56958 13686 ft 354 kts 217°
2026-05-04 18:53 36.52533 -4.58657 14370 ft 357 kts 217°
2026-05-04 18:53 36.50481 -4.60344 15062 ft 360 kts 217°
2026-05-04 18:53 36.48388 -4.62062 15806 ft 362 kts 217°
2026-05-04 18:54 36.46249 -4.63816 16524 ft 365 kts 217°
2026-05-04 18:54 36.44159 -4.65529 17201 ft 368 kts 217°
2026-05-04 18:54 36.42009 -4.67288 17872 ft 372 kts 217°
2026-05-04 18:54 36.39843 -4.69061 18509 ft 374 kts 217°
2026-05-04 18:55 36.37664 -4.70842 19135 ft 376 kts 217°
2026-05-04 18:55 36.33261 -4.74437 20297 ft 382 kts 217°
2026-05-04 18:55 36.31035 -4.76253 20866 ft 385 kts 217°
2026-05-04 18:56 36.28789 -4.78084 21418 ft 387 kts 217°
2026-05-04 18:56 36.26529 -4.79926 21960 ft 390 kts 217°
2026-05-04 18:56 36.24256 -4.81777 22495 ft 393 kts 218°
2026-05-04 18:56 36.21961 -4.83644 23019 ft 396 kts 218°
2026-05-04 18:57 36.19649 -4.85524 23531 ft 399 kts 218°
2026-05-04 18:57 36.17325 -4.87412 23961 ft 401 kts 218°
2026-05-04 18:57 36.14985 -4.89311 24405 ft 403 kts 218°
2026-05-04 18:57 36.12633 -4.91199 24902 ft 402 kts 218°
2026-05-04 18:58 36.10281 -4.93066 25376 ft 403 kts 218°
2026-05-04 18:58 36.07909 -4.94943 25764 ft 406 kts 218°
2026-05-04 18:58 36.05528 -4.96829 26047 ft 411 kts 218°
2026-05-04 18:58 36.03106 -4.98748 26365 ft 414 kts 218°
2026-05-04 18:59 36.00681 -5.00667 26795 ft 415 kts 218°
2026-05-04 18:59 35.98247 -5.02592 27216 ft 415 kts 218°
2026-05-04 18:59 35.95811 -5.04520 27591 ft 417 kts 219°
2026-05-04 18:59 35.93361 -5.06457 27937 ft 419 kts 219°
2026-05-04 19:00 35.90900 -5.08402 28304 ft 420 kts 219°
2026-05-04 19:00 35.88443 -5.10342 28804 ft 418 kts 219°
2026-05-04 19:00 35.86001 -5.12267 29412 ft 414 kts 219°
2026-05-04 19:00 35.83583 -5.14170 29993 ft 411 kts 219°
2026-05-04 19:01 35.81163 -5.16036 30426 ft 410 kts 218°
2026-05-04 19:01 35.78721 -5.17860 30771 ft 411 kts 218°
2026-05-04 19:01 35.76303 -5.19647 31151 ft 410 kts 218°
2026-05-04 19:01 35.73831 -5.21473 31589 ft 407 kts 218°
2026-05-04 19:02 35.71414 -5.23263 32056 ft 405 kts 218°
2026-05-04 19:02 35.69035 -5.25030 32427 ft 404 kts 218°
2026-05-04 19:02 35.66633 -5.26818 32771 ft 404 kts 218°
2026-05-04 19:02 35.64232 -5.28606 33032 ft 405 kts 218°
2026-05-04 19:03 35.59430 -5.32204 33013 ft 400 kts 220°
2026-05-04 19:03 35.54910 -5.36176 33027 ft 400 kts 223°
2026-05-04 19:04 35.50413 -5.40208 33028 ft 402 kts 222°
2026-05-04 19:04 35.45873 -5.44257 33022 ft 405 kts 222°
2026-05-04 19:05 35.41300 -5.48312 33027 ft 405 kts 222°
2026-05-04 19:05 35.36735 -5.52350 32999 ft 405 kts 222°
2026-05-04 19:06 35.32173 -5.56377 33052 ft 403 kts 222°
2026-05-04 19:06 35.27623 -5.60390 33047 ft 403 kts 222°
2026-05-04 19:07 35.23110 -5.64361 33066 ft 401 kts 222°
2026-05-04 19:07 35.18591 -5.68334 33077 ft 400 kts 222°
2026-05-04 19:08 35.14065 -5.72313 33054 ft 400 kts 222°
2026-05-04 19:08 35.09550 -5.76274 33044 ft 399 kts 222°
2026-05-04 19:09 35.05031 -5.80231 33064 ft 400 kts 222°
2026-05-04 19:09 35.00508 -5.84188 33064 ft 400 kts 222°
2026-05-04 19:10 34.95976 -5.88148 33061 ft 401 kts 222°
2026-05-04 19:10 34.91446 -5.92099 33062 ft 401 kts 222°
2026-05-04 19:11 34.87053 -5.96234 33057 ft 398 kts 225°
2026-05-04 19:11 34.82778 -6.00515 33057 ft 398 kts 225°
2026-05-04 19:12 34.76351 -6.06925 33066 ft 399 kts 225°
2026-05-04 19:13 34.72040 -6.11193 33042 ft 400 kts 225°
2026-05-04 19:13 34.67719 -6.15477 33060 ft 400 kts 225°
2026-05-04 19:14 34.63395 -6.19757 33061 ft 401 kts 225°
2026-05-04 19:14 34.59059 -6.24019 33060 ft 402 kts 225°
2026-05-04 19:15 34.54727 -6.28310 33036 ft 401 kts 223°
2026-05-04 19:15 34.50250 -6.32386 33057 ft 405 kts 220°
2026-05-04 19:15 34.47722 -6.34008 33049 ft 417 kts 206°
2026-05-04 19:16 34.44935 -6.35041 33065 ft 421 kts 203°
2026-05-04 19:16 34.39311 -6.36934 32927 ft 423 kts 203°
2026-05-04 19:16 34.36558 -6.38249 32044 ft 417 kts 214°
2026-05-04 19:17 34.34144 -6.39992 31611 ft 407 kts 218°
2026-05-04 19:17 34.31743 -6.41808 31096 ft 404 kts 218°
2026-05-04 19:17 34.29404 -6.43570 30607 ft 400 kts 218°
2026-05-04 19:17 34.27052 -6.45332 30138 ft 397 kts 218°
2026-05-04 19:18 34.24708 -6.47082 29585 ft 394 kts 217°
2026-05-04 19:18 34.22384 -6.48812 29082 ft 390 kts 217°
2026-05-04 19:18 34.20092 -6.50515 28600 ft 385 kts 217°
2026-05-04 19:18 34.17817 -6.52202 28104 ft 381 kts 217°
2026-05-04 19:19 34.15573 -6.53866 27634 ft 377 kts 217°
2026-05-04 19:19 34.13336 -6.55523 27162 ft 374 kts 217°
2026-05-04 19:19 34.11195 -6.57109 26704 ft 371 kts 217°
2026-05-04 19:19 34.09002 -6.58732 26255 ft 368 kts 217°
2026-05-04 19:20 34.06830 -6.60349 25794 ft 366 kts 217°
2026-05-04 19:20 34.04678 -6.61939 25343 ft 363 kts 217°
2026-05-04 19:20 34.02521 -6.63530 24875 ft 362 kts 217°
2026-05-04 19:20 34.00380 -6.65108 24437 ft 360 kts 217°
2026-05-04 19:21 33.98246 -6.66681 23976 ft 359 kts 217°
2026-05-04 19:21 33.96117 -6.68250 23504 ft 358 kts 217°
2026-05-04 19:21 33.94021 -6.69795 23001 ft 356 kts 216°
2026-05-04 19:21 33.91952 -6.71320 22535 ft 354 kts 216°
2026-05-04 19:22 33.89868 -6.72860 22086 ft 351 kts 217°
2026-05-04 19:22 33.87794 -6.74395 21642 ft 348 kts 216°
2026-05-04 19:22 33.85736 -6.75915 21195 ft 346 kts 216°
2026-05-04 19:22 33.83693 -6.77419 20772 ft 343 kts 216°
2026-05-04 19:23 33.81664 -6.78911 20351 ft 341 kts 216°
2026-05-04 19:23 33.79642 -6.80395 19926 ft 339 kts 216°
2026-05-04 19:23 33.78275 -6.81399 19645 ft 338 kts 216°
2026-05-04 19:23 33.76281 -6.82854 19201 ft 337 kts 214°
2026-05-04 19:24 33.74277 -6.84308 18796 ft 335 kts 214°
2026-05-04 19:24 33.72282 -6.85762 18374 ft 335 kts 214°
2026-05-04 19:24 33.70292 -6.87216 17894 ft 334 kts 214°
2026-05-04 19:24 33.68319 -6.88659 17449 ft 332 kts 214°
2026-05-04 19:25 33.66348 -6.90099 17023 ft 330 kts 214°
2026-05-04 19:25 33.64388 -6.91532 16600 ft 328 kts 214°
2026-05-04 19:25 33.62452 -6.92946 16190 ft 327 kts 214°
2026-05-04 19:25 33.60508 -6.94366 15770 ft 325 kts 214°
2026-05-04 19:26 33.58578 -6.95774 15334 ft 326 kts 214°
2026-05-04 19:26 33.56637 -6.97191 14859 ft 327 kts 214°
2026-05-04 19:26 33.54689 -6.98611 14378 ft 328 kts 214°
2026-05-04 19:26 33.52771 -7.00008 13938 ft 328 kts 214°
2026-05-04 19:27 33.50798 -7.01445 13416 ft 328 kts 213°
2026-05-04 19:27 33.48845 -7.02866 12904 ft 328 kts 213°
2026-05-04 19:27 33.46893 -7.04285 12387 ft 328 kts 213°
2026-05-04 19:27 33.44984 -7.05672 11888 ft 321 kts 213°
2026-05-04 19:28 33.43078 -7.07055 11389 ft 312 kts 213°
2026-05-04 19:28 33.41265 -7.08371 10906 ft 305 kts 213°
2026-05-04 19:28 33.39473 -7.09671 10418 ft 298 kts 213°
2026-05-04 19:28 33.37717 -7.10945 9959 ft 292 kts 213°
2026-05-04 19:29 33.35993 -7.12195 9436 ft 287 kts 213°
2026-05-04 19:29 33.34294 -7.13427 8932 ft 283 kts 213°
2026-05-04 19:29 33.32617 -7.14642 8436 ft 280 kts 213°
2026-05-04 19:29 33.30956 -7.15845 7940 ft 278 kts 212°
2026-05-04 19:30 33.29309 -7.17038 7436 ft 276 kts 212°
2026-05-04 19:30 33.27669 -7.18227 6963 ft 274 kts 213°
2026-05-04 19:30 33.26045 -7.19402 6479 ft 273 kts 212°
2026-05-04 19:30 33.24424 -7.20574 5984 ft 273 kts 212°
2026-05-04 19:31 33.22795 -7.21752 5487 ft 273 kts 212°
2026-05-04 19:31 33.21168 -7.22927 4997 ft 273 kts 211°
2026-05-04 19:31 33.19543 -7.24100 4499 ft 273 kts 212°
2026-05-04 19:31 33.17919 -7.25272 3985 ft 273 kts 212°
2026-05-04 19:32 33.16316 -7.26472 3673 ft 268 kts 218°
2026-05-04 19:32 33.15210 -7.28171 3618 ft 254 kts 249°
2026-05-04 19:32 33.14714 -7.30122 3603 ft 242 kts 262°
2026-05-04 19:32 33.14412 -7.32074 3611 ft 238 kts 262°
2026-05-04 19:33 33.14128 -7.34005 3619 ft 234 kts 263°
2026-05-04 19:33 33.13852 -7.35885 3613 ft 227 kts 263°
2026-05-04 19:33 33.13580 -7.37716 3612 ft 222 kts 261°
2026-05-04 19:33 33.13399 -7.38915 3590 ft 222 kts 263°
2026-05-04 19:34 33.13028 -7.41328 3610 ft 225 kts 262°
2026-05-04 19:34 33.12838 -7.42560 3592 ft 225 kts 261°
2026-05-04 19:34 33.12552 -7.44374 3614 ft 223 kts 262°
2026-05-04 19:34 33.12264 -7.46206 3602 ft 222 kts 263°
2026-05-04 19:35 33.11982 -7.48006 3608 ft 221 kts 265°
2026-05-04 19:35 33.12114 -7.49763 3592 ft 210 kts 301°
2026-05-04 19:35 33.13167 -7.50885 3610 ft 206 kts 343°
2026-05-04 19:35 33.14576 -7.51227 3621 ft 208 kts 349°
2026-05-04 19:36 33.15954 -7.51641 3605 ft 198 kts 346°
2026-05-04 19:36 33.17235 -7.52072 3583 ft 183 kts 346°
2026-05-04 19:36 33.18440 -7.52485 3582 ft 182 kts 346°
2026-05-04 19:36 33.19669 -7.52907 3613 ft 184 kts 346°
2026-05-04 19:37 33.20919 -7.53338 3505 ft 189 kts 346°
2026-05-04 19:37 33.22162 -7.53812 3270 ft 186 kts 345°
2026-05-04 19:37 33.23362 -7.54325 2996 ft 182 kts 343°
2026-05-04 19:37 33.24538 -7.54837 2727 ft 177 kts 343°
2026-05-04 19:38 33.25634 -7.55335 2562 ft 160 kts 344°
2026-05-04 19:38 33.26668 -7.55737 2376 ft 153 kts 348°
2026-05-04 19:38 33.27697 -7.56098 2180 ft 153 kts 347°
2026-05-04 19:38 33.28722 -7.56452 1983 ft 152 kts 347°
2026-05-04 19:39 33.29713 -7.56794 1761 ft 146 kts 348°
2026-05-04 19:39 33.30674 -7.57130 1613 ft 139 kts 346°
2026-05-04 19:39 33.31581 -7.57440 1374 ft 134 kts 348°
2026-05-04 19:39 33.32489 -7.57745 1217 ft 135 kts 347°
2026-05-04 19:40 33.33400 -7.58074 1050 ft 139 kts 344°
2026-05-04 19:40 33.34311 -7.58375 822 ft 131 kts 345°
2026-05-04 19:40 33.35167 -7.58668 688 ft 125 kts 345°
2026-05-04 19:40 33.35919 -7.58927 649 ft 103 kts 345°
2026-05-04 19:41 33.36528 -7.59131 649 ft 76 kts 344°
2026-05-04 19:41 33.36910 -7.59262 651 ft 47 kts 344°
2026-05-04 19:41 33.37206 -7.59317 652 ft 41 kts
2026-05-04 19:41 33.37465 -7.59247 653 ft 33 kts 14°
2026-05-04 19:42 33.37661 -7.59181 649 ft 29 kts 17°
2026-05-04 19:42 33.37822 -7.59070 645 ft 27 kts 63°
2026-05-04 19:42 33.37846 -7.58974 649 ft 0 kts 75°
2026-05-04 19:45 33.37846 -7.58972 650 ft 2 kts 75°
2026-05-04 19:45 33.37854 -7.58937 650 ft 7 kts 75°
2026-05-04 19:46 33.37873 -7.58854 651 ft 13 kts 74°
2026-05-04 19:46 33.37901 -7.58741 652 ft 14 kts 73°
2026-05-04 19:46 33.37892 -7.58629 653 ft 14 kts 124°
2026-05-04 19:46 33.37836 -7.58539 652 ft 13 kts 128°
2026-05-04 19:47 33.37766 -7.58475 652 ft 13 kts 160°
2026-05-04 19:47 33.37683 -7.58447 652 ft 12 kts 164°
2026-05-04 19:47 33.37599 -7.58436 652 ft 12 kts 174°
2026-05-04 19:47 33.37519 -7.58409 652 ft 12 kts 164°
2026-05-04 19:48 33.37440 -7.58383 652 ft 12 kts 164°
2026-05-04 19:48 33.37363 -7.58357 652 ft 11 kts 164°
2026-05-04 19:48 33.37290 -7.58333 652 ft 11 kts 164°
2026-05-04 19:48 33.37226 -7.58309 652 ft 8 kts 152°
2026-05-04 19:49 33.37223 -7.58253 652 ft 6 kts 58°
2026-05-04 19:49 33.37241 -7.58210 652 ft 5 kts 65°
2026-05-04 19:49 33.37242 -7.58207 652 ft 0 kts 64°